Flag for Germany Weather past 2 weeks in Niederkassel, North Rhine-Westphalia, Germany

Now
49 °F

Overcast.


Feels Like: 47 °F
Forecast: 51 / 62 °F
Wind: 5 mph from Southwest

Location: Bonn-Hangelar

Current Time: Sep 24, 2014 at 7:21:10 AM

Latest Report: Sep 24, 2014 at 7:00 AM


Visibility: 16 mi

Pressure: 29.97 "Hg

Humidity: 82%

Dew point: 43 °F

Location of NiederkasselLocation

Historic Weather in Niederkassel — Graph

°F

Niederkassel temperature yesterday

Maximum temperature yesterday: 59 °F (at 5:00 PM)
Minimum temperature yesterday: 44 °F (at 5:00 AM)
Average temperature yesterday: 52 °F

Past Weeks' High & Low Weather Summary

 TemperatureHumidityPressure
High75 °F (Sep 17, 3:00 PM)99% (Sep 13, 10:00 AM)30.27 "Hg (Sep 13, 10:00 AM)
Low44 °F (Sep 23, 5:00 AM)52% (Sep 10, 3:00 PM)29.80 "Hg (Sep 18, 6:00 PM)
Average60 °F81%30.05 "Hg
* Reported Sep 9 6:00 AM — Sep 24 6:00 AM, Niederkassel, Weather by CustomWeather, © 2014

Note: Actual official high and low records may vary slightly from our data, if they occured in-between our weather recording intervals... More about our weather records

Advertising

Niederkassel weather history for previous 24 hours

 ConditionsComfort  
Time TempWeatherWind HumidityBarometerVisibility
6:00 AM
Sep 24
49 °FOvercast.6 mph80%29.98 "Hg16 mi
5:00 AM49 °FOvercast.6 mph79%29.99 "Hg12 mi
4:00 AM51 °FOvercast.6 mph76%30.01 "Hg15 mi
3:00 AM50 °FOvercast.5 mph79%30.03 "Hg12 mi
2:00 AM51 °FOvercast.5 mph77%30.04 "Hg11 mi
1:00 AM49 °FOvercast.3 mph87%30.06 "Hg7 mi
12:00 AM51 °FOvercast.2 mph81%30.07 "Hg10 mi
11:00 PM
Sep 23
51 °FOvercast.3 mph81%30.08 "Hg9 mi
10:00 PM51 °FOvercast.3 mph82%30.08 "Hg7 mi
9:00 PM52 °FOvercast.1 mph80%30.10 "Hg12 mi
8:00 PM54 °FPassing clouds.1 mph74%30.10 "Hg16 mi
7:00 PM56 °FPartly sunny.2 mph63%30.09 "Hg22 mi
6:00 PM59 °FPassing clouds.1 mph54%30.09 "Hg22 mi
5:00 PM59 °FScattered clouds.2 mph55%30.11 "Hg22 mi
4:00 PM58 °FPassing clouds.3 mph58%30.13 "Hg22 mi
3:00 PM59 °FPassing clouds.2 mph57%30.15 "Hg22 mi
2:00 PM58 °FScattered clouds.2 mph56%30.16 "Hg22 mi
1:00 PM58 °FScattered clouds.2 mph60%30.18 "Hg22 mi
12:00 PM56 °FPassing clouds.2 mph62%30.19 "Hg16 mi
11:00 AM54 °FPassing clouds.2 mph69%30.20 "Hg9 mi
10:00 AM51 °FPartly sunny.3 mph80%30.21 "Hg6 mi
9:00 AM49 °FScattered clouds.2 mph88%30.20 "Hg6 mi
8:00 AM46 °FOvercast.3 mph91%30.21 "Hg6 mi
7:00 AM45 °FPassing clouds.2 mph92%30.21 "Hg6 mi
Weather by CustomWeather, © 2014

See weather overviewHow to use our weather pages